Home > Weather > Bernburg (Saale) > Past weeks

Flag for Germany Past Weather in Bernburg (Saale), Saxony-Anhalt, Germany — Yesterday and Last 2 Weeks

Now
81 °F

Sunny.


Feels Like: 80 °F
Forecast: 63 / 87 °F
Wind: 6 mph from Southeast

Location: Leipzig-Schkeuditz

Current Time: Jul 23, 2016 at 7:03:25 PM

Latest Report: Jul 23, 2016 at 6:20 PM


Visibility: 10 mi

Pressure: 30.04 "Hg

Humidity: 34%

Dew Point: 50 °F

Location of Bernburg (Saale)Location

Past Weather in Bernburg (Saale) — Graph

°F

Bernburg (Saale) Temperature Yesterday

Maximum temperature yesterday: 88 °F (at 3:20 PM)
Minimum temperature yesterday: 63 °F (at 3:50 AM)
Average temperature yesterday: 74 °F

High & Low Weather Summary for the Past Weeks

 TemperatureHumidityPressure
High88 °F (Jul 22, 3:20 PM)100% (Jul 14, 7:20 AM)30.27 "Hg (Jul 14, 7:20 AM)
Low48 °F (Jul 16, 5:50 AM)25% (Jul 23, 1:50 PM)29.77 "Hg (Jul 11, 1:20 AM)
Average69 °F64%30.02 "Hg
* Reported Jul 8 5:20 PM — Jul 23 5:50 PM, Bernburg (Saale), Weather by CustomWeather, © 2016

Note: Actual official high and low records may vary slightly from our data, if they occured in-between our weather recording intervals... More about our weather records

Advertising

Bernburg (Saale) Weather History for the Previous 24 Hours

Scroll right to see more
 ConditionsComfort  
Time TempWeatherWind HumidityBarometerVisibility
5:50 PM
Sat, Jul 23
82 °FSunny.5 mph32%30.04 "Hg10 mi
5:20 PM82 °FSunny.7 mph30%30.04 "Hg10 mi
4:50 PM84 °FPassing clouds.8 mph31%30.04 "HgN/A
4:20 PM84 °FPassing clouds.8 mph27%30.04 "HgN/A
3:50 PM84 °FPassing clouds.8 mph25%30.04 "HgN/A
3:20 PM84 °FSunny.8 mph25%30.04 "Hg10 mi
2:50 PM84 °FPassing clouds.9 mph25%30.04 "HgN/A
2:20 PM84 °FPassing clouds.9 mph25%30.04 "HgN/A
1:50 PM84 °FPassing clouds.9 mph25%30.04 "HgN/A
1:20 PM82 °FPassing clouds.12 mph28%30.04 "HgN/A
12:50 PM81 °FPassing clouds.10 mph32%30.04 "HgN/A
12:20 PM81 °FSunny.12 mph32%30.04 "Hg10 mi
11:50 AM81 °FPassing clouds.9 mph32%30.04 "HgN/A
11:20 AM79 °FPassing clouds.9 mph34%30.04 "HgN/A
10:50 AM79 °FPassing clouds.10 mph34%30.04 "HgN/A
10:20 AM77 °FSunny.12 mph39%30.04 "Hg10 mi
9:50 AM73 °FPassing clouds.8 mph44%30.04 "HgN/A
9:20 AM72 °FBroken clouds.5 mph47%30.04 "HgN/A
8:50 AM68 °FPassing clouds.3 mph56%30.04 "HgN/A
8:20 AM66 °FPassing clouds.3 mph56%30.04 "HgN/A
7:50 AM64 °FPassing clouds.3 mph60%30.04 "HgN/A
7:20 AM63 °FSunny.6 mph64%30.04 "Hg10 mi
6:50 AM63 °FSunny.5 mph59%30.04 "Hg10 mi
6:20 AM61 °FPassing clouds.5 mph63%30.04 "HgN/A
5:50 AM61 °FClear.7 mph63%30.04 "Hg10 mi
5:20 AM63 °FClear.8 mph56%30.04 "Hg10 mi
4:50 AM61 °FClear.9 mph59%30.01 "Hg10 mi
4:20 AM63 °FClear.10 mph52%30.04 "Hg10 mi
3:50 AM64 °FClear.8 mph49%30.04 "Hg10 mi
3:20 AM64 °FClear.8 mph46%30.04 "Hg10 mi
2:50 AM66 °FClear.10 mph43%30.04 "Hg10 mi
2:20 AM66 °FClear.9 mph46%30.04 "Hg10 mi
1:50 AM68 °FClear.9 mph43%30.04 "Hg10 mi
1:20 AM68 °FClear.9 mph43%30.04 "Hg10 mi
12:50 AM70 °FClear.9 mph40%30.04 "Hg10 mi
12:20 AM70 °FClear.10 mph46%30.04 "Hg10 mi
11:50 PM
Fri, Jul 22
72 °FClear.9 mph53%30.04 "Hg10 mi
11:20 PM70 °FClear.8 mph69%30.01 "Hg10 mi
10:50 PM70 °FClear.8 mph73%30.01 "Hg10 mi
10:20 PM72 °FScattered showers. Passing clouds.10 mph69%30.01 "HgN/A
9:50 PM72 °FScattered showers. Partly sunny.10 mph69%30.01 "HgN/A
9:20 PM72 °FSprinkles. Scattered clouds.13 mph73%30.01 "HgN/A
8:50 PM73 °FSprinkles. Broken clouds.17 mph69%30.01 "HgN/A
8:20 PM81 °FBroken clouds.6 mph48%30.01 "HgN/A
7:50 PM82 °FScattered clouds.7 mph42%29.98 "HgN/A
7:20 PM84 °FSunny.10 mph40%29.98 "Hg10 mi
Weather by CustomWeather, © 2016

See weather overviewHow to use our weather pages